Weather History for Corpus Christi, TX

Change the Weather History Date:

Sunday, September 23, 2012

  Actual Average Record
Temperature  
Mean Temperature 83 °F 80 °F  
Max Temperature 94 °F 89 °F 100 °F (2005)
Min Temperature 71 °F 71 °F 56 °F (1999)
Degree Days  
Heating Degree Days 0 0  
Month to date heating degree days 0 0  
Since 1 July heating degree days 0 0  
Cooling Degree Days 18 15  
Month to date cooling degree days 443 386  
Year to date cooling degree days 3674 2947  
Growing Degree Days 32 (Base 50)    
Moisture  
Dew Point 71 °F    
Average Humidity 70    
Maximum Humidity 93    
Minimum Humidity 46    
Precipitation  
Precipitation 0.00 in 0.15 in 2.82 in (1888)
Month to date precipitation 2.37 3.96  
Year to date precipitation 16.79 23.30  
Snow  
Snow 0.00 in - - ()
Month to date snowfall 0.0  
Since 1 July snowfall 0.0  
Since 1 September snowfall 0.0  
Snow Depth 0.00 in    
Sea Level Pressure  
Sea Level Pressure 30.10 in    
Wind  
Wind Speed 7 mph (East)    
Max Wind Speed 20 mph    
Max Gust Speed 23 mph    
Visibility 10 miles    
Events      
T = Trace of Precipitation, MM = Missing Value Source: NWS Daily Summary

Daily Weather History Graph

Daily Weather History Graph

Search for Another Location

Airport:

Trip Planner

Search our weather history database for the weather conditions in past years. The results will help you decide how hot, cold, wet, or windy it might be!

Date:

Astronomy

Sep. 23, 2012 Rise Set
Actual Time 7:19 AM CDT 7:24 PM CDT
Civil Twilight 6:55 AM CDT 7:48 PM CDT
Nautical Twilight 6:28 AM CDT 8:15 PM CDT
Astronomical Twilight 6:01 AM CDT 8:42 PM CDT
Moon 3:00 PM CDT (9/23) 1:01 AM CDT (9/23)
Length of Visible Light 12h 52m
Length of Day
12h 05m
First Quarter, 60% of the Moon is Illuminated
Sep 23
First Quarter
Sep 29
Full
Oct 8
Last Quarter
Oct 15
New
Oct 21
First Quarter

Hourly Weather History & Observations

Time (CDT) Temp. Heat Index Dew Point Humidity Pressure Visibility Wind Dir Wind Speed Gust Speed Precip Events Conditions
12:51 AM 75.0 °F - 71.1 °F 87% 30.07 in 10.0 mi Calm Calm - N/A   Partly Cloudy
1:51 AM 73.9 °F - 69.1 °F 85% 30.07 in 10.0 mi Calm Calm - N/A   Partly Cloudy
2:51 AM 73.9 °F - 69.1 °F 85% 30.06 in 10.0 mi Calm Calm - N/A   Partly Cloudy
3:51 AM 73.0 °F - 69.1 °F 87% 30.07 in 10.0 mi NNW 3.5 mph - N/A   Partly Cloudy
4:51 AM 73.9 °F - 70.0 °F 87% 30.06 in 10.0 mi NNE 5.8 mph - N/A   Partly Cloudy
5:51 AM 73.0 °F - 70.0 °F 90% 30.07 in 10.0 mi North 3.5 mph - N/A   Partly Cloudy
6:51 AM 72.0 °F - 69.1 °F 91% 30.09 in 10.0 mi North 3.5 mph - N/A   Partly Cloudy
7:51 AM 73.0 °F - 70.0 °F 90% 30.10 in 10.0 mi North 4.6 mph - N/A   Partly Cloudy
8:51 AM 79.0 °F - 73.0 °F 82% 30.12 in 10.0 mi North 6.9 mph - N/A   Partly Cloudy
9:51 AM 86.0 °F 95.1 °F 75.0 °F 70% 30.14 in 10.0 mi NE 5.8 mph - N/A   Scattered Clouds
10:51 AM 88.0 °F 95.6 °F 73.0 °F 61% 30.14 in 10.0 mi ENE 4.6 mph - N/A   Scattered Clouds
11:51 AM 90.0 °F 96.4 °F 71.1 °F 54% 30.14 in 10.0 mi Variable 4.6 mph - N/A   Scattered Clouds
12:51 PM 91.9 °F 98.4 °F 71.1 °F 50% 30.12 in 10.0 mi SE 9.2 mph 17.3 mph N/A   Scattered Clouds
1:51 PM 93.0 °F 97.9 °F 69.1 °F 45% 30.10 in 10.0 mi East 11.5 mph - N/A   Scattered Clouds
2:51 PM 93.0 °F 99.0 °F 70.0 °F 47% 30.08 in 10.0 mi ESE 12.7 mph 19.6 mph N/A   Scattered Clouds
3:51 PM 91.0 °F 97.6 °F 71.1 °F 52% 30.08 in 10.0 mi East 17.3 mph - N/A   Scattered Clouds
4:51 PM 91.0 °F 97.6 °F 71.1 °F 52% 30.07 in 10.0 mi ESE 18.4 mph - N/A   Partly Cloudy
5:51 PM 87.1 °F 92.8 °F 71.1 °F 59% 30.08 in 10.0 mi ESE 16.1 mph - N/A   Scattered Clouds
6:51 PM 86.0 °F 93.0 °F 73.0 °F 65% 30.09 in 10.0 mi ESE 12.7 mph - N/A   Scattered Clouds
7:51 PM 84.0 °F 89.6 °F 72.0 °F 67% 30.10 in 10.0 mi ESE 11.5 mph - N/A   Partly Cloudy
8:51 PM 82.9 °F 88.0 °F 72.0 °F 69% 30.11 in 10.0 mi SE 10.4 mph - N/A   Partly Cloudy
9:51 PM 82.0 °F 86.7 °F 72.0 °F 71% 30.12 in 10.0 mi SE 8.1 mph - N/A   Partly Cloudy
10:51 PM 79.0 °F - 70.0 °F 74% 30.12 in 10.0 mi SSE 3.5 mph - N/A   Partly Cloudy
11:51 PM 77.0 °F - 71.1 °F 82% 30.12 in 10.0 mi ESE 3.5 mph - N/A   Partly Cloudy